Find OneWeb SL0241

NORAD ID: 48773 Int'l Des: 2021-045 Owner: ONEWEBN Country: UK Constellation: oneweb operational
LEOCIRCULARPOLARONEWEB_TYPE

Live Position

Loading 3D Globe...

About OneWeb SL0241

Description loading...

Upcoming Passes

Passes for default location (London). Set your location on the main map for personalized predictions.

Altitude History

Loading altitude history...

Two-Line Element Set

1 48773U 21045G 26127.11439641 -.00000047 00000-0 -15880-3 0 9996
2 48773 87.8965 267.3961 0001528 87.6135 272.5170 13.15548449238937
Epoch: May 7, 2026 • Age: 11 hours

Current Status

Altitude 1205.4 km
Velocity 7.25 km/s
Sub-Earth Point 33.28°N, 164.73°W
Launch Date May 28, 2021
Age 4.9 years
Type internet

Technical Details

Classification Payload
Mass 148.00 kg
Dry Mass 140.00 kg
Total Mass 148.00 kg
Length 1.30 m
Diameter 1.00 m
Span 5.00 m
Shape Trapezoid+2 pan
Manufacturer ONEWUS
Bus Type ARROW
Phase Status In Orbit
Owner/State ONEWEBN/UK

Most Searched